Home > Weather > Allentown > Past weeks

Flag for USA Weather for the Past 2 Weeks in Allentown, Pennsylvania, USA

Now
48 °F

Overcast.


Feels Like: 44 °F
Forecast: 47 / 57 °F
Wind: 9 mph from Northeast

Location: Lehigh Valley International Airport

Current Time: May 5, 2016 at 5:01:15 AM

Latest Report: May 5, 2016 at 3:51 AM


Visibility: 10 mi

Pressure: 29.71 "Hg

Humidity: 83%

Dew Point: 43 °F

Location of AllentownLocation

Historic Weather in Allentown — Graph

°F

Allentown Temperature Yesterday

Maximum temperature yesterday: 54 °F (at 12:51 AM)
Minimum temperature yesterday: 50 °F (at 9:51 PM)
Average temperature yesterday: 52 °F

High & Low Weather Summary for the Past Weeks

 TemperatureHumidityPressure
High80 °F (Apr 26, 3:51 PM)94% (May 1, 11:01 PM)30.29 "Hg (May 1, 11:01 PM)
Low38 °F (Apr 21, 5:51 AM)13% (Apr 20, 2:51 PM)29.59 "Hg (Apr 26, 3:51 PM)
Average55 °F65%29.97 "Hg
* Reported Apr 20 3:51 AM — May 5 3:51 AM, Allentown, Weather by CustomWeather, © 2016

Note: Actual official high and low records may vary slightly from our data, if they occured in-between our weather recording intervals... More about our weather records

Advertising

Allentown Weather History for the Previous 24 Hours

Scroll right to see more
 ConditionsComfort  
Time TempWeatherWind HumidityBarometerVisibility
3:51 AM
Thu, May 5
48 °FOvercast.9 mph83%29.71 "Hg10 mi
2:51 AM48 °FOvercast.8 mph86%29.73 "Hg10 mi
1:51 AM49 °FOvercast.10 mph84%29.72 "Hg10 mi
12:51 AM49 °FOvercast.7 mph86%29.74 "Hg10 mi
11:51 PM
Wed, May 4
50 °FOvercast.9 mph86%29.73 "Hg10 mi
10:51 PM50 °FFog.7 mph86%29.74 "Hg5 mi
9:51 PM50 °FLight rain. Fog.3 mph89%29.76 "Hg3 mi
8:51 PM51 °FOvercast.6 mph80%29.75 "Hg10 mi
7:51 PM51 °FMostly cloudy.5 mph77%29.73 "Hg10 mi
6:51 PM52 °FOvercast.9 mph77%29.71 "Hg10 mi
5:59 PM52 °FOvercast.12 mph82%29.71 "Hg10 mi
4:51 PM53 °FOvercast.9 mph80%29.71 "Hg10 mi
3:51 PM52 °FOvercast.7 mph86%29.70 "Hg9 mi
2:58 PM52 °FCloudy.7 mph88%29.72 "Hg3 mi
2:00 PM54 °FMore clouds than sun.10 mph82%29.73 "Hg1 mi
12:58 PM54 °FMostly cloudy.8 mph82%29.75 "Hg1 mi
11:51 AM51 °FFog.6 mph86%29.76 "Hg4 mi
11:04 AM52 °FHeavy rain. Fog.9 mph88%29.77 "Hg2 mi
10:55 AM52 °FHeavy rain. Fog.7 mph88%29.77 "Hg2 mi
9:51 AM52 °FLow clouds.8 mph83%29.76 "Hg10 mi
8:51 AM52 °FMostly cloudy.6 mph83%29.76 "Hg8 mi
7:51 AM51 °FLight rain. Fog.8 mph89%29.77 "Hg6 mi
7:01 AM52 °FLight rain. Fog.6 mph82%29.78 "Hg6 mi
5:51 AM51 °FLight rain. Mostly cloudy.3 mph89%29.77 "Hg9 mi
Weather by CustomWeather, © 2016

See weather overviewHow to use our weather pages